RLTS3 YMES-YTEM

Flight info

Callsign RLTS3
Flight time 1h 39m
Altitude 7500
Route ESL5 YHOT DCT AY W638 WG DCT YTEM
Aircraft PC21/L-SDFGTUVY/C

Departure

Time 2026-05-06 11:07
Airport RAAF Base East Sale (YMES)

Arrival

Time 2026-05-06 12:47
Airport Temora Airport (YTEM)
Time Latitude Longitude Altitude Speed Heading
2026-05-06 10:50 -38.09905 147.13631 26 ft 0 kts 188°
2026-05-06 11:00 -38.09907 147.13630 26 ft 2 kts 188°
2026-05-06 11:00 -38.09926 147.13633 27 ft 4 kts 123°
2026-05-06 11:00 -38.09939 147.13729 26 ft 13 kts 97°
2026-05-06 11:00 -38.09946 147.13796 26 ft 6 kts 99°
2026-05-06 11:01 -38.09954 147.13855 26 ft 4 kts 100°
2026-05-06 11:01 -38.09955 147.13887 26 ft 4 kts 49°
2026-05-06 11:01 -38.09920 147.13905 28 ft 6 kts 54°
2026-05-06 11:01 -38.09920 147.13985 28 ft 14 kts 97°
2026-05-06 11:02 -38.09895 147.14034 28 ft 9 kts
2026-05-06 11:02 -38.09850 147.14051 29 ft 6 kts 57°
2026-05-06 11:02 -38.09863 147.14170 25 ft 15 kts 99°
2026-05-06 11:02 -38.09884 147.14334 25 ft 18 kts 99°
2026-05-06 11:03 -38.09901 147.14479 23 ft 13 kts 98°
2026-05-06 11:03 -38.09917 147.14608 20 ft 14 kts 99°
2026-05-06 11:03 -38.09936 147.14751 18 ft 15 kts 97°
2026-05-06 11:03 -38.09950 147.14869 19 ft 14 kts 99°
2026-05-06 11:04 -38.09966 147.15003 21 ft 20 kts 98°
2026-05-06 11:04 -38.09986 147.15154 25 ft 16 kts 97°
2026-05-06 11:04 -38.09993 147.15239 24 ft 6 kts 86°
2026-05-06 11:04 -38.09986 147.15263 24 ft 0 kts 63°
2026-05-06 11:05 -38.09983 147.15271 27 ft 2 kts 63°
2026-05-06 11:05 -38.09934 147.15320 27 ft 11 kts 13°
2026-05-06 11:06 -38.09878 147.15294 24 ft 9 kts 282°
2026-05-06 11:06 -38.09867 147.15198 23 ft 0 kts 278°
2026-05-06 11:07 -38.09857 147.15106 22 ft 43 kts 279°
2026-05-06 11:07 -38.09767 147.14363 27 ft 119 kts 278°
2026-05-06 11:07 -38.09620 147.13157 225 ft 164 kts 278°
2026-05-06 11:07 -38.09429 147.11570 755 ft 193 kts 279°
2026-05-06 11:08 -38.09228 147.09852 1412 ft 200 kts 278°
2026-05-06 11:08 -38.08733 147.08243 2140 ft 207 kts 316°
2026-05-06 11:08 -38.07294 147.07770 2732 ft 225 kts 13°
2026-05-06 11:08 -38.06031 147.08942 3159 ft 250 kts 54°
2026-05-06 11:09 -38.05318 147.11030 3788 ft 263 kts 71°
2026-05-06 11:09 -38.04756 147.13242 4672 ft 264 kts 73°
2026-05-06 11:09 -38.04272 147.15487 5458 ft 259 kts 75°
2026-05-06 11:09 -38.03656 147.17655 5922 ft 269 kts 50°
2026-05-06 11:10 -38.02062 147.18866 6277 ft 268 kts 19°
2026-05-06 11:10 -38.00306 147.19503 7002 ft 261 kts 13°
2026-05-06 11:10 -37.98545 147.19971 7573 ft 263 kts 11°
2026-05-06 11:10 -37.96778 147.20431 8276 ft 263 kts 10°
2026-05-06 11:11 -37.94843 147.20859 7883 ft 292 kts
2026-05-06 11:11 -37.92818 147.21218 7618 ft 302 kts
2026-05-06 11:11 -37.90684 147.21579 7568 ft 314 kts
2026-05-06 11:11 -37.88514 147.21959 7797 ft 315 kts
2026-05-06 11:12 -37.86383 147.22344 8009 ft 304 kts
2026-05-06 11:12 -37.84177 147.22608 7585 ft 328 kts
2026-05-06 11:12 -37.81927 147.22992 7446 ft 319 kts
2026-05-06 11:12 -37.79771 147.23363 7401 ft 317 kts
2026-05-06 11:13 -37.77597 147.23778 7379 ft 314 kts
2026-05-06 11:13 -37.75460 147.24203 7317 ft 312 kts
2026-05-06 11:13 -37.73324 147.24676 7221 ft 310 kts
2026-05-06 11:13 -37.71187 147.25155 7153 ft 316 kts 10°
2026-05-06 11:14 -37.69013 147.25657 7133 ft 317 kts 10°
2026-05-06 11:14 -37.66854 147.26161 7112 ft 313 kts 10°
2026-05-06 11:14 -37.64713 147.26648 7120 ft 306 kts
2026-05-06 11:14 -37.62592 147.27103 7048 ft 312 kts
2026-05-06 11:15 -37.60475 147.27471 7045 ft 313 kts
2026-05-06 11:15 -37.58318 147.27790 7055 ft 312 kts
2026-05-06 11:15 -37.56159 147.28048 7085 ft 307 kts
2026-05-06 11:15 -37.54047 147.28273 7524 ft 300 kts
2026-05-06 11:16 -37.51951 147.28456 7627 ft 306 kts
2026-05-06 11:16 -37.49806 147.28583 7559 ft 311 kts
2026-05-06 11:16 -37.47656 147.28677 7523 ft 310 kts
2026-05-06 11:16 -37.45537 147.28898 7530 ft 310 kts
2026-05-06 11:17 -37.43368 147.28920 7598 ft 314 kts
2026-05-06 11:17 -37.41196 147.29062 7522 ft 314 kts
2026-05-06 11:17 -37.39024 147.29236 7532 ft 305 kts
2026-05-06 11:17 -37.36945 147.29394 7523 ft 300 kts
2026-05-06 11:18 -37.34812 147.29531 7519 ft 306 kts 360°
2026-05-06 11:18 -37.32735 147.29119 7502 ft 291 kts 347°
2026-05-06 11:18 -37.30714 147.28789 7327 ft 305 kts 354°
2026-05-06 11:18 -37.28554 147.28871 7515 ft 312 kts
2026-05-06 11:19 -37.26371 147.29275 7317 ft 327 kts
2026-05-06 11:19 -37.24151 147.29675 7340 ft 322 kts
2026-05-06 11:19 -37.21983 147.30125 7218 ft 311 kts
2026-05-06 11:19 -37.19841 147.30581 7150 ft 311 kts
2026-05-06 11:20 -37.17743 147.31020 7237 ft 303 kts
2026-05-06 11:20 -37.15664 147.31451 7239 ft 307 kts
2026-05-06 11:20 -37.13524 147.31897 7153 ft 315 kts
2026-05-06 11:20 -37.11372 147.32296 7075 ft 309 kts
2026-05-06 11:21 -37.09268 147.32686 7028 ft 308 kts
2026-05-06 11:21 -37.07219 147.33397 7018 ft 319 kts 24°
2026-05-06 11:21 -37.05586 147.35248 6846 ft 316 kts 40°
2026-05-06 11:21 -37.03703 147.36204 6868 ft 293 kts 347°
2026-05-06 11:22 -37.02273 147.34699 7036 ft 281 kts 288°
2026-05-06 11:22 -37.02766 147.32379 7004 ft 306 kts 227°
2026-05-06 11:22 -37.04803 147.31650 6990 ft 319 kts 172°
2026-05-06 11:22 -37.06365 147.33382 6993 ft 310 kts 107°
2026-05-06 11:23 -37.05903 147.35895 6885 ft 307 kts 36°
2026-05-06 11:23 -37.04006 147.36242 6994 ft 285 kts 334°
2026-05-06 11:23 -37.02149 147.35294 7181 ft 291 kts 334°
2026-05-06 11:23 -37.00226 147.34482 7364 ft 295 kts 340°
2026-05-06 11:24 -36.98203 147.33710 7529 ft 309 kts 343°
2026-05-06 11:24 -36.96204 147.32929 7687 ft 302 kts 342°
2026-05-06 11:24 -36.94199 147.32181 7744 ft 304 kts 342°
2026-05-06 11:24 -36.92130 147.31413 7281 ft 312 kts 342°
2026-05-06 11:25 -36.90056 147.30599 7151 ft 313 kts 341°
2026-05-06 11:25 -36.88013 147.29727 7218 ft 307 kts 337°
2026-05-06 11:25 -36.86001 147.28869 7134 ft 310 kts 337°
2026-05-06 11:25 -36.84002 147.27997 7133 ft 305 kts 336°
2026-05-06 11:26 -36.81988 147.27090 7099 ft 308 kts 340°
2026-05-06 11:26 -36.80182 147.25731 6448 ft 314 kts 315°
2026-05-06 11:26 -36.78838 147.23477 5559 ft 330 kts 307°
2026-05-06 11:26 -36.77122 147.21659 5002 ft 326 kts 329°
2026-05-06 11:27 -36.75143 147.20253 4524 ft 325 kts 330°
2026-05-06 11:27 -36.73188 147.18910 4342 ft 320 kts 331°
2026-05-06 11:27 -36.71269 147.17575 4151 ft 320 kts 331°
2026-05-06 11:27 -36.69432 147.16289 4164 ft 304 kts 332°
2026-05-06 11:28 -36.67551 147.14993 4226 ft 308 kts 330°
2026-05-06 11:28 -36.65652 147.13702 4094 ft 316 kts 331°
2026-05-06 11:28 -36.63747 147.12456 3887 ft 310 kts 332°
2026-05-06 11:28 -36.61770 147.11279 3732 ft 316 kts 335°
2026-05-06 11:29 -36.59811 147.10195 3719 ft 306 kts 336°
2026-05-06 11:29 -36.57861 147.09137 3739 ft 306 kts 336°
2026-05-06 11:29 -36.55871 147.08210 3650 ft 306 kts 343°
2026-05-06 11:29 -36.53821 147.07680 3599 ft 305 kts 348°
2026-05-06 11:30 -36.51750 147.07200 3626 ft 298 kts 345°
2026-05-06 11:30 -36.49712 147.06706 3558 ft 303 kts 347°
2026-05-06 11:30 -36.47644 147.06188 3519 ft 302 kts 347°
2026-05-06 11:30 -36.45578 147.05661 3467 ft 303 kts 347°
2026-05-06 11:31 -36.43520 147.05125 3423 ft 303 kts 347°
2026-05-06 11:31 -36.41451 147.04606 3422 ft 302 kts 347°
2026-05-06 11:31 -36.39395 147.04117 3309 ft 300 kts 348°
2026-05-06 11:31 -36.37339 147.04013 2928 ft 309 kts 13°
2026-05-06 11:32 -36.35516 147.05453 1971 ft 323 kts 43°
2026-05-06 11:32 -36.33871 147.07048 2850 ft 270 kts 12°
2026-05-06 11:32 -36.32168 147.06397 2767 ft 278 kts 323°
2026-05-06 11:32 -36.30539 147.04697 1351 ft 321 kts 319°
2026-05-06 11:33 -36.30137 147.04291 5221 ft 146 kts 140°
2026-05-06 11:33 -36.29858 147.04163 1382 ft 311 kts 323°
2026-05-06 11:33 -36.27952 147.02908 1610 ft 294 kts 341°
2026-05-06 11:33 -36.26068 147.02196 2050 ft 283 kts 343°
2026-05-06 11:34 -36.24195 147.01527 2343 ft 278 kts 343°
2026-05-06 11:34 -36.22327 147.00885 2556 ft 278 kts 336°
2026-05-06 11:34 -36.20443 147.00278 2713 ft 282 kts 350°
2026-05-06 11:34 -36.18540 146.99671 2814 ft 286 kts 343°
2026-05-06 11:35 -36.16608 146.99040 2861 ft 289 kts 344°
2026-05-06 11:35 -36.14653 146.98429 2881 ft 291 kts 344°
2026-05-06 11:35 -36.12680 146.97815 2894 ft 294 kts 344°
2026-05-06 11:35 -36.10687 146.97204 2852 ft 295 kts 344°
2026-05-06 11:36 -36.08704 146.96619 2835 ft 298 kts 345°
2026-05-06 11:36 -36.06666 146.96075 2787 ft 301 kts 349°
2026-05-06 11:36 -36.04578 146.96131 2858 ft 300 kts
2026-05-06 11:36 -36.02542 146.96743 2820 ft 304 kts 12°
2026-05-06 11:37 -36.00526 146.97456 2949 ft 301 kts 19°
2026-05-06 11:37 -35.98805 146.98916 2953 ft 307 kts 45°
2026-05-06 11:37 -35.97725 147.01185 2984 ft 309 kts 70°
2026-05-06 11:37 -35.97421 147.03785 3130 ft 305 kts 81°
2026-05-06 11:38 -35.96310 147.05829 3225 ft 296 kts 25°
2026-05-06 11:38 -35.94375 147.06621 3384 ft 295 kts 14°
2026-05-06 11:38 -35.92439 147.07341 3752 ft 290 kts 15°
2026-05-06 11:38 -35.90533 147.08230 4040 ft 296 kts 18°
2026-05-06 11:39 -35.88609 147.09164 4336 ft 297 kts 18°
2026-05-06 11:39 -35.86689 147.10119 4483 ft 299 kts 19°
2026-05-06 11:39 -35.84771 147.11114 4578 ft 299 kts 19°
2026-05-06 11:39 -35.82856 147.12150 4713 ft 301 kts 20°
2026-05-06 11:40 -35.80963 147.13192 4791 ft 303 kts 20°
2026-05-06 11:40 -35.79020 147.14239 4897 ft 305 kts 19°
2026-05-06 11:40 -35.77063 147.15241 5000 ft 305 kts 23°
2026-05-06 11:40 -35.75099 147.16205 5127 ft 301 kts 29°
2026-05-06 11:41 -35.73129 147.17128 5255 ft 305 kts 17°
2026-05-06 11:41 -35.71110 147.18039 5314 ft 307 kts 16°
2026-05-06 11:41 -35.69109 147.18958 5419 ft 306 kts 17°
2026-05-06 11:41 -35.67900 147.19522 5413 ft 307 kts 17°
2026-05-06 11:42 -35.66137 147.20371 5437 ft 320 kts 18°
2026-05-06 11:42 -35.64063 147.21532 5565 ft 330 kts 22°
2026-05-06 11:42 -35.61994 147.22779 6053 ft 320 kts 20°
2026-05-06 11:42 -35.59945 147.23801 6746 ft 316 kts 17°
2026-05-06 11:43 -35.57864 147.24725 7173 ft 320 kts 15°
2026-05-06 11:43 -35.55741 147.25630 7367 ft 327 kts 15°
2026-05-06 11:43 -35.53568 147.26546 7455 ft 334 kts 15°
2026-05-06 11:44 -35.49250 147.28863 7519 ft 344 kts 21°
2026-05-06 11:44 -35.47387 147.30713 5630 ft 382 kts 53°
2026-05-06 11:44 -35.45423 147.32673 5263 ft 355 kts 18°
2026-05-06 11:44 -35.43205 147.33758 5379 ft 329 kts 18°
2026-05-06 11:45 -35.41110 147.34746 5403 ft 324 kts 18°
2026-05-06 11:45 -35.39033 147.35773 5391 ft 322 kts 19°
2026-05-06 11:45 -35.36953 147.36810 5399 ft 322 kts 19°
2026-05-06 11:45 -35.34878 147.37840 5405 ft 322 kts 19°
2026-05-06 11:46 -35.32830 147.38840 5384 ft 322 kts 18°
2026-05-06 11:46 -35.30743 147.39856 5376 ft 323 kts 18°
2026-05-06 11:46 -35.28656 147.40874 5325 ft 325 kts 19°
2026-05-06 11:46 -35.26550 147.41903 5282 ft 326 kts 19°
2026-05-06 11:47 -35.24449 147.42934 5251 ft 325 kts 19°
2026-05-06 11:47 -35.22347 147.43962 5201 ft 326 kts 19°
2026-05-06 11:47 -35.20238 147.44984 5113 ft 327 kts 18°
2026-05-06 11:47 -35.18109 147.45992 5000 ft 329 kts 18°
2026-05-06 11:48 -35.15919 147.46668 4894 ft 325 kts
2026-05-06 11:48 -35.13696 147.46810 4862 ft 322 kts 358°
2026-05-06 11:48 -35.11463 147.46938 4853 ft 323 kts 359°
2026-05-06 11:48 -35.09230 147.47082 4776 ft 322 kts 360°
2026-05-06 11:49 -35.06996 147.47252 4727 ft 321 kts
2026-05-06 11:49 -35.04764 147.47447 4688 ft 321 kts
2026-05-06 11:49 -35.02542 147.47617 4656 ft 320 kts 359°
2026-05-06 11:49 -35.00314 147.47742 4611 ft 321 kts 359°
2026-05-06 11:50 -34.98085 147.47861 4586 ft 320 kts 359°
2026-05-06 11:50 -34.95870 147.47969 4561 ft 318 kts 359°
2026-05-06 11:50 -34.93651 147.48097 4528 ft 320 kts 360°
2026-05-06 11:50 -34.91464 147.48255 4428 ft 318 kts
2026-05-06 11:51 -34.89243 147.48449 4460 ft 317 kts
2026-05-06 11:51 -34.87030 147.48639 4364 ft 322 kts
2026-05-06 11:51 -34.84793 147.48841 4294 ft 322 kts
2026-05-06 11:51 -34.82564 147.49049 4237 ft 321 kts
2026-05-06 11:52 -34.80339 147.49214 4199 ft 319 kts 360°
2026-05-06 11:52 -34.78122 147.49360 4198 ft 318 kts 360°
2026-05-06 11:52 -34.75907 147.49508 4168 ft 319 kts
2026-05-06 11:52 -34.73730 147.49647 4104 ft 319 kts 359°
2026-05-06 11:53 -34.71515 147.49769 4060 ft 319 kts 359°
2026-05-06 11:53 -34.70454 147.49828 3835 ft 325 kts
2026-05-06 11:53 -34.68343 147.50022 4221 ft 289 kts
2026-05-06 11:54 -34.66612 147.50223 4097 ft 253 kts 360°
2026-05-06 11:54 -34.64712 147.50330 4231 ft 290 kts 356°
2026-05-06 11:54 -34.62631 147.50241 4527 ft 307 kts 355°
2026-05-06 11:54 -34.60384 147.50267 4140 ft 336 kts 358°
2026-05-06 11:55 -34.58058 147.50341 4048 ft 341 kts 358°
2026-05-06 11:55 -34.55678 147.50404 3872 ft 345 kts 358°
2026-05-06 11:55 -34.53273 147.50426 3714 ft 344 kts 357°
2026-05-06 11:55 -34.50894 147.50415 3675 ft 342 kts 356°
2026-05-06 11:56 -34.48526 147.50336 3705 ft 339 kts 355°
2026-05-06 11:56 -34.46163 147.50108 3478 ft 344 kts 354°
2026-05-06 11:56 -34.43759 147.50183 3117 ft 347 kts
2026-05-06 11:56 -34.41378 147.50618 3019 ft 345 kts 20°
2026-05-06 11:57 -34.39631 147.52496 3219 ft 344 kts 64°
2026-05-06 11:57 -34.39254 147.55293 3116 ft 348 kts 95°
2026-05-06 11:57 -34.39562 147.58220 2599 ft 352 kts 103°
2026-05-06 11:57 -34.40679 147.60708 2588 ft 334 kts 146°
2026-05-06 11:58 -34.42842 147.61177 2740 ft 321 kts 197°
2026-05-06 11:58 -34.44413 147.59702 2948 ft 276 kts 243°
2026-05-06 11:58 -34.44537 147.57504 3116 ft 272 kts 289°
2026-05-06 11:58 -34.43212 147.55887 2957 ft 290 kts 336°
2026-05-06 11:59 -34.41222 147.56133 2825 ft 305 kts 33°
2026-05-06 11:59 -34.40311 147.58323 2796 ft 302 kts 95°
2026-05-06 11:59 -34.41333 147.60329 3051 ft 282 kts 155°
2026-05-06 11:59 -34.43100 147.60189 3231 ft 271 kts 221°
2026-05-06 12:00 -34.43506 147.58064 2783 ft 290 kts 291°
2026-05-06 12:00 -34.42069 147.56250 1882 ft 313 kts 319°
2026-05-06 12:00 -34.41039 147.55332 4921 ft 86 kts 138°
2026-05-06 12:00 -34.41251 147.55817 2638 ft 215 kts 322°
2026-05-06 12:01 -34.39425 147.54565 1857 ft 297 kts
2026-05-06 12:01 -34.38562 147.56270 2855 ft 271 kts 118°
2026-05-06 12:01 -34.40204 147.57057 2318 ft 282 kts 187°
2026-05-06 12:01 -34.41535 147.56887 1791 ft 298 kts 188°
2026-05-06 12:02 -34.42366 147.56817 5583 ft 142 kts
2026-05-06 12:02 -34.42752 147.56744 1646 ft 308 kts 192°
2026-05-06 12:02 -34.44729 147.56939 2280 ft 283 kts 130°
2026-05-06 12:02 -34.44160 147.58810 2133 ft 293 kts
2026-05-06 12:03 -34.42203 147.58029 1502 ft 303 kts 333°
2026-05-06 12:03 -34.40748 147.57595 4174 ft 215 kts
2026-05-06 12:03 -34.39116 147.56999 1571 ft 319 kts 329°
2026-05-06 12:03 -34.38620 147.54906 1995 ft 283 kts 229°
2026-05-06 12:04 -34.39818 147.54559 1749 ft 293 kts 163°
2026-05-06 12:04 -34.42239 147.56056 1671 ft 290 kts 151°
2026-05-06 12:04 -34.43931 147.57243 1691 ft 275 kts 148°
2026-05-06 12:04 -34.45617 147.58349 1893 ft 283 kts 154°
2026-05-06 12:05 -34.46675 147.60176 2335 ft 283 kts 88°
2026-05-06 12:05 -34.46038 147.61466 2525 ft 282 kts 25°
2026-05-06 12:05 -34.43903 147.60400 2175 ft 282 kts 292°
2026-05-06 12:05 -34.43588 147.58854 1932 ft 290 kts 277°
2026-05-06 12:06 -34.42993 147.56561 1947 ft 289 kts 310°
2026-05-06 12:06 -34.41147 147.56066 2097 ft 293 kts 24°
2026-05-06 12:06 -34.40259 147.58100 2266 ft 293 kts 102°
2026-05-06 12:06 -34.42219 147.59501 2586 ft 271 kts 204°
2026-05-06 12:07 -34.43106 147.58462 2538 ft 274 kts 244°
2026-05-06 12:07 -34.43183 147.56120 1944 ft 292 kts 278°
2026-05-06 12:07 -34.42835 147.53641 1524 ft 299 kts 279°
2026-05-06 12:07 -34.42469 147.51202 1418 ft 296 kts 281°
2026-05-06 12:08 -34.42203 147.49869 4549 ft 91 kts 94°
2026-05-06 12:08 -34.42153 147.50528 2462 ft 189 kts 277°
2026-05-06 12:08 -34.41229 147.48514 1624 ft 301 kts 345°
2026-05-06 12:08 -34.39869 147.49843 1759 ft 289 kts 95°
2026-05-06 12:09 -34.41226 147.51317 1603 ft 285 kts 175°
2026-05-06 12:09 -34.43203 147.51104 1500 ft 286 kts 190°
2026-05-06 12:09 -34.44857 147.50234 2592 ft 247 kts 238°
2026-05-06 12:09 -34.44794 147.48259 2935 ft 259 kts 299°
2026-05-06 12:10 -34.43112 147.47395 2406 ft 301 kts 12°
2026-05-06 12:10 -34.41961 147.49283 1850 ft 311 kts 90°
2026-05-06 12:10 -34.42062 147.51810 2384 ft 228 kts 68°
2026-05-06 12:10 -34.42674 147.53452 2706 ft 293 kts 142°
2026-05-06 12:11 -34.44476 147.54877 2313 ft 318 kts 155°
2026-05-06 12:11 -34.46275 147.56180 2540 ft 284 kts 130°
2026-05-06 12:11 -34.46270 147.58310 2789 ft 280 kts 43°
2026-05-06 12:11 -34.44436 147.58690 2636 ft 286 kts 341°
2026-05-06 12:12 -34.43103 147.56986 1872 ft 300 kts 286°
2026-05-06 12:12 -34.42745 147.54509 1646 ft 297 kts 278°
2026-05-06 12:12 -34.42465 147.52080 1507 ft 294 kts 278°
2026-05-06 12:12 -34.42170 147.49817 2705 ft 146 kts 280°
2026-05-06 12:13 -34.42187 147.50448 4597 ft 113 kts 99°
2026-05-06 12:13 -34.42021 147.48895 1352 ft 301 kts 256°
2026-05-06 12:13 -34.43626 147.48298 1485 ft 290 kts 133°
2026-05-06 12:13 -34.43472 147.50460 1443 ft 286 kts 45°
2026-05-06 12:14 -34.41709 147.50844 1500 ft 278 kts 325°
2026-05-06 12:14 -34.40490 147.49215 2286 ft 258 kts 329°
2026-05-06 12:14 -34.38973 147.49876 2417 ft 286 kts 75°
2026-05-06 12:14 -34.40035 147.51560 1770 ft 290 kts 174°
2026-05-06 12:15 -34.42109 147.51274 1173 ft 307 kts 189°
2026-05-06 12:15 -34.43252 147.51066 3816 ft 126 kts 10°
2026-05-06 12:15 -34.42901 147.51110 1465 ft 282 kts 191°
2026-05-06 12:15 -34.44168 147.49565 1719 ft 294 kts 279°
2026-05-06 12:16 -34.42825 147.47860 2021 ft 284 kts 336°
2026-05-06 12:16 -34.40912 147.47270 2214 ft 286 kts 345°
2026-05-06 12:16 -34.38973 147.46865 2283 ft 289 kts 360°
2026-05-06 12:16 -34.37311 147.48093 2360 ft 297 kts 61°
2026-05-06 12:17 -34.37274 147.50503 2178 ft 298 kts 119°
2026-05-06 12:17 -34.38930 147.51800 1692 ft 298 kts 178°
2026-05-06 12:17 -34.40998 147.51509 1423 ft 294 kts 189°
2026-05-06 12:17 -34.43001 147.51187 1438 ft 282 kts 189°
2026-05-06 12:18 -34.44887 147.50845 1699 ft 266 kts 190°
2026-05-06 12:18 -34.46705 147.50470 2393 ft 251 kts 191°
2026-05-06 12:18 -34.48055 147.49531 3306 ft 234 kts 252°
2026-05-06 12:18 -34.47023 147.48174 2338 ft 296 kts
2026-05-06 12:19 -34.45084 147.49267 1588 ft 315 kts 30°
2026-05-06 12:19 -34.43828 147.50179 4373 ft 57 kts 207°
2026-05-06 12:19 -34.44119 147.50132 2241 ft 235 kts 31°
2026-05-06 12:19 -34.42113 147.50990 1430 ft 308 kts 347°
2026-05-06 12:20 -34.40578 147.49375 1749 ft 283 kts 310°
2026-05-06 12:20 -34.38832 147.48975 2305 ft 288 kts 32°
2026-05-06 12:20 -34.38535 147.51165 1888 ft 299 kts 131°
2026-05-06 12:20 -34.40466 147.51640 1323 ft 301 kts 189°
2026-05-06 12:21 -34.42527 147.51245 1312 ft 288 kts 182°
2026-05-06 12:21 -34.44493 147.50841 1446 ft 286 kts 190°
2026-05-06 12:21 -34.46287 147.50451 2648 ft 250 kts 192°
2026-05-06 12:21 -34.47667 147.49446 3054 ft 246 kts 254°
2026-05-06 12:22 -34.46569 147.48073 2137 ft 303 kts
2026-05-06 12:22 -34.44548 147.49021 1482 ft 314 kts 24°
2026-05-06 12:22 -34.43082 147.50025 4143 ft 195 kts 53°
2026-05-06 12:22 -34.41931 147.51272 2042 ft 307 kts 19°
2026-05-06 12:23 -34.39822 147.51594 1971 ft 297 kts 332°
2026-05-06 12:23 -34.38819 147.49672 2366 ft 272 kts 280°
2026-05-06 12:23 -34.38437 147.47480 2905 ft 261 kts 281°
2026-05-06 12:23 -34.38415 147.45384 3242 ft 257 kts 243°
2026-05-06 12:24 -34.39985 147.44311 2682 ft 293 kts 182°
2026-05-06 12:24 -34.41787 147.45456 2055 ft 313 kts 126°
2026-05-06 12:24 -34.42440 147.47985 1527 ft 321 kts 100°
2026-05-06 12:24 -34.42695 147.49944 4071 ft 10 kts 276°
2026-05-06 12:25 -34.42603 147.49374 3459 ft 53 kts 116°
2026-05-06 12:25 -34.42815 147.51622 2427 ft 232 kts 76°
2026-05-06 12:25 -34.42436 147.53712 3269 ft 282 kts 79°
2026-05-06 12:25 -34.42023 147.56256 3105 ft 292 kts 90°
2026-05-06 12:26 -34.42274 147.58604 3391 ft 276 kts 98°
2026-05-06 12:26 -34.41660 147.60686 3384 ft 273 kts 31°
2026-05-06 12:26 -34.40239 147.60131 2927 ft 258 kts 276°
2026-05-06 12:26 -34.40998 147.58172 2436 ft 271 kts 230°
2026-05-06 12:27 -34.42212 147.56439 2416 ft 271 kts 231°
2026-05-06 12:27 -34.43276 147.54547 2373 ft 273 kts 243°
2026-05-06 12:27 -34.43881 147.52364 2257 ft 276 kts 259°
2026-05-06 12:27 -34.44033 147.50033 2150 ft 278 kts 271°
2026-05-06 12:28 -34.43823 147.47706 2128 ft 277 kts 278°
2026-05-06 12:28 -34.43512 147.45434 2254 ft 272 kts 278°
2026-05-06 12:28 -34.43038 147.43334 3098 ft 252 kts 297°
2026-05-06 12:28 -34.41672 147.42037 3312 ft 274 kts 343°
2026-05-06 12:29 -34.39931 147.42933 2806 ft 309 kts 63°
2026-05-06 12:29 -34.40414 147.45320 1934 ft 320 kts 143°
2026-05-06 12:29 -34.42394 147.46225 2069 ft 297 kts 181°
2026-05-06 12:29 -34.43595 147.44780 1989 ft 283 kts 285°
2026-05-06 12:30 -34.41932 147.44195 1468 ft 305 kts 36°
2026-05-06 12:30 -34.41027 147.46402 1496 ft 302 kts 89°
2026-05-06 12:30 -34.41646 147.48744 1459 ft 299 kts 118°
2026-05-06 12:30 -34.42300 147.51126 1416 ft 291 kts 130°
2026-05-06 12:31 -34.44133 147.50965 1658 ft 259 kts 192°
2026-05-06 12:31 -34.44045 147.51103 3795 ft 119 kts 17°
2026-05-06 12:31 -34.42401 147.51459 1201 ft 306 kts
2026-05-06 12:31 -34.42478 147.50197 1309 ft 277 kts 160°
2026-05-06 12:32 -34.41984 147.51399 1551 ft 251 kts
2026-05-06 12:32 -34.40774 147.52715 2025 ft 262 kts 83°
2026-05-06 12:32 -34.41478 147.54695 2035 ft 274 kts 142°
2026-05-06 12:32 -34.43276 147.55375 2257 ft 268 kts 176°
2026-05-06 12:33 -34.44842 147.56283 3093 ft 267 kts 117°
2026-05-06 12:33 -34.44046 147.58047 3033 ft 278 kts
2026-05-06 12:33 -34.42556 147.56970 2895 ft 274 kts 285°
2026-05-06 12:33 -34.42880 147.54673 2195 ft 294 kts 254°
2026-05-06 12:34 -34.42935 147.52161 1448 ft 310 kts 279°
2026-05-06 12:34 -34.42643 147.50022 3248 ft 24 kts 234°
2026-05-06 12:34 -34.42604 147.50216 1725 ft 257 kts 13°
2026-05-06 12:34 -34.40647 147.50854 1826 ft 285 kts 15°
2026-05-06 12:35 -34.38770 147.51518 1957 ft 286 kts 14°
2026-05-06 12:35 -34.36826 147.51870 2023 ft 281 kts 350°
2026-05-06 12:35 -34.35066 147.51020 2026 ft 269 kts 332°
2026-05-06 12:35 -34.33527 147.49886 2246 ft 254 kts 318°
2026-05-06 12:36 -34.32249 147.48465 2422 ft 246 kts 319°
2026-05-06 12:36 -34.30636 147.48042 2454 ft 260 kts 23°
2026-05-06 12:36 -34.30187 147.49963 2145 ft 275 kts 122°
2026-05-06 12:36 -34.31700 147.51286 2024 ft 282 kts 165°
2026-05-06 12:37 -34.33595 147.51912 2088 ft 282 kts 166°
2026-05-06 12:37 -34.35499 147.52516 2029 ft 285 kts 173°
2026-05-06 12:37 -34.37481 147.52395 1712 ft 289 kts 192°
2026-05-06 12:37 -34.39481 147.51956 1420 ft 294 kts 190°
2026-05-06 12:38 -34.41461 147.51621 1473 ft 281 kts 188°
2026-05-06 12:38 -34.43382 147.51331 1509 ft 276 kts 187°
2026-05-06 12:38 -34.45271 147.51082 1828 ft 268 kts 182°
2026-05-06 12:38 -34.46780 147.52093 2518 ft 263 kts 114°
2026-05-06 12:39 -34.46347 147.54170 2375 ft 282 kts 40°
2026-05-06 12:39 -34.44541 147.54991 2288 ft 287 kts
2026-05-06 12:39 -34.42554 147.55326 2243 ft 287 kts
2026-05-06 12:39 -34.40594 147.55731 2388 ft 289 kts 13°
2026-05-06 12:40 -34.39322 147.57367 2249 ft 297 kts 98°
2026-05-06 12:40 -34.40860 147.58573 1834 ft 289 kts 193°
2026-05-06 12:40 -34.42120 147.56949 1804 ft 280 kts 258°
2026-05-06 12:40 -34.42418 147.54592 1553 ft 285 kts 261°
2026-05-06 12:41 -34.43178 147.52471 1676 ft 276 kts 212°
2026-05-06 12:41 -34.44755 147.53021 2470 ft 263 kts 111°
2026-05-06 12:41 -34.43993 147.54684 2599 ft 264 kts
2026-05-06 12:41 -34.42818 147.53333 1831 ft 279 kts 276°
2026-05-06 12:42 -34.42653 147.50899 1335 ft 292 kts 274°
2026-05-06 12:42 -34.42898 147.50020 4342 ft 124 kts 181°
2026-05-06 12:42 -34.41833 147.50367 1397 ft 285 kts 12°
2026-05-06 12:42 -34.40308 147.51623 2046 ft 278 kts 68°
2026-05-06 12:43 -34.40727 147.53826 1981 ft 286 kts 133°
2026-05-06 12:43 -34.42354 147.55100 1975 ft 285 kts 162°
2026-05-06 12:43 -34.44290 147.55470 2088 ft 280 kts 176°
2026-05-06 12:43 -34.46145 147.55432 2656 ft 261 kts 209°
2026-05-06 12:44 -34.46635 147.53550 2565 ft 271 kts 296°
2026-05-06 12:44 -34.45017 147.52391 2157 ft 296 kts 355°
2026-05-06 12:44 -34.42953 147.52888 1781 ft 303 kts 14°
2026-05-06 12:44 -34.40971 147.53561 1998 ft 290 kts 15°
2026-05-06 12:45 -34.39038 147.54058 2233 ft 280 kts 350°
2026-05-06 12:45 -34.38396 147.52367 1967 ft 275 kts 230°
2026-05-06 12:45 -34.42257 147.51369 1291 ft 294 kts 188°
2026-05-06 12:46 -34.42680 147.50316 1712 ft 257 kts 358°
2026-05-06 12:46 -34.41190 147.50735 1652 ft 178 kts 15°
2026-05-06 12:46 -34.40268 147.51268 1460 ft 137 kts 77°
2026-05-06 12:46 -34.40940 147.51688 1130 ft 140 kts 193°
2026-05-06 12:47 -34.41859 147.51492 935 ft 120 kts 190°
2026-05-06 12:47 -34.42533 147.51357 912 ft 57 kts 189°
2026-05-06 12:47 -34.42789 147.51310 918 ft 17 kts 189°
2026-05-06 12:47 -34.42849 147.51331 919 ft 11 kts 99°
2026-05-06 12:48 -34.42857 147.51383 918 ft 8 kts 99°
2026-05-06 12:48 -34.42823 147.51408 917 ft 8 kts 336°
2026-05-06 12:48 -34.42782 147.51373 918 ft 5 kts 358°
2026-05-06 12:48 -34.42773 147.51383 918 ft 0 kts 104°